sat.trackr.live / text

‹ back to catalog

STARLINK-5816

NORAD 55778 · 2023-028AP

PAYLOAD ACTIVE UNKNOWN

§ Identity

Operator
Country
US
Launch date
2023-03-03
Launch site
AFWTR
Launch vehicle
Mass (kg)
RCS (m²)

Purposes: comms

External: N2YO · Heavens-Above · Gunter

§ Orbital elements

Epoch: 2026-05-25T02:37:40.209888Z

Period
96.11 min
Inclination
69.9999°
Eccentricity
0.0002769
Mean motion
14.98330714 rev/d
Perigee alt
570.1 km
Apogee alt
574.0 km
Semi-major
6,950.2 km
B*
2.0941e-5
RAAN
31.6340°
Arg perigee
266.7907°
Mean anomaly
93.2935°
Rev number
17,798

§ Raw data

STARLINK-58161 55778U 23028AP  26145.10949317  .00000157  00000+0  20941-4 0  99912 55778  69.9999  31.6340 0002769 266.7907  93.2935 14.98330714177986

JSON: /api/v1/satellites/55778 · /tle

For live sub-satellite position, see the globe view (requires WebGL).

§ Visibility from observer

Set your observer location to see the next 7 days of passes ≥ 10°. The values pass through the URL so the page stays shareable.

No JS? Fill the form by hand. The geolocation button needs JavaScript.